Date String (YYYY-MM-DD hh:mm:ss) UTC,Instrument flags,absolute air pressure of the measurement (hPa),sample flow rate (lpm),inlet stack bypass flow (lpm),air temperature of the measurement (°C),ambient temperature measured by the external sensor (°C),aerosol sample conditioner tube jacket temperature (°C),OPC LED temperature (°C),internal box temperature (°C),relative humidity of the measurement (%),span deviation,mass concentration of particles derived from Lorenz-Mie calculation of OPC scattering (μg/m³),mass concentration of particles derived from Lorenz-Mie calculation of OPC scattering (μg/m³),mass concentration of particles derived from Lorenz-Mie calculation of OPC scattering (μg/m³)
DateTimeUTC,F1_M11,P_M11,Q1_M11,Q2_M11,T1_M11,T2_M11,T3_M11,T4_M11,T5_M11,U1_M11,ZSPAN_M11,X0_M11,X2_M11,X1_M11
2023-07-27 03:00:00,SystemResetWarning,0835.2,4.99,000.00,029.1,027.3,000.0,037.4,030.6,32.9,0000.0,0012.26,0004.52,0003.37
2023-07-27 03:01:00,SystemResetWarning,0835.2,4.99,000.00,029.1,027.5,000.0,037.4,030.7,32.8,0000.0,0012.46,0004.50,0003.36
2023-07-27 03:02:00,SystemResetWarning,0835.3,5.00,000.00,029.1,027.8,000.0,037.4,030.8,32.8,0000.0,0011.66,0004.50,0003.36
2023-07-27 03:03:00,SystemResetWarning,0835.3,5.01,000.00,029.2,027.7,000.0,037.4,030.8,32.6,0000.0,0011.02,0004.47,0003.36
2023-07-27 03:04:00,SystemResetWarning,0835.2,4.99,000.00,029.2,026.3,000.0,037.3,030.6,32.4,0000.0,0011.40,0004.50,0003.35
2023-07-27 03:05:00,SystemResetWarning,0835.2,5.01,000.00,029.1,025.4,000.0,037.3,030.5,32.6,0000.0,0012.16,0004.52,0003.35
2023-07-27 03:06:00,SystemResetWarning,0835.2,5.01,000.00,029.0,025.4,000.0,037.3,030.2,32.8,0000.0,0012.15,0004.53,0003.35
2023-07-27 03:07:00,SystemResetWarning,0835.2,5.00,000.00,029.0,025.8,000.0,037.3,030.2,33.0,0000.0,0012.31,0004.56,0003.37
2023-07-27 03:08:00,SystemResetWarning,0835.3,4.99,000.00,029.0,026.2,000.0,037.3,030.3,33.0,0000.0,0012.26,0004.48,0003.36
2023-07-27 03:09:00,SystemResetWarning,0835.4,5.00,000.00,029.0,026.6,000.0,037.4,030.4,32.6,0000.0,0012.44,0004.47,0003.37
2023-07-27 03:10:00,SystemResetWarning,0835.3,5.00,000.00,029.0,026.9,000.0,037.4,030.5,32.4,0000.0,0011.72,0004.46,0003.37
2023-07-27 03:11:00,SystemResetWarning,0835.3,5.01,000.00,029.0,027.2,000.0,037.4,030.6,32.3,0000.0,0012.14,0004.49,0003.38
2023-07-27 03:12:00,SystemResetWarning,0835.4,5.01,000.00,029.1,027.5,000.0,037.4,030.7,32.0,0000.0,0012.18,0004.51,0003.38
2023-07-27 03:13:00,SystemResetWarning,0835.4,5.00,000.00,029.1,027.7,000.0,037.4,030.8,31.9,0000.0,0012.28,0004.56,0003.39
2023-07-27 03:14:00,SystemResetWarning,0835.4,4.98,000.00,029.2,027.8,000.0,037.4,030.8,31.7,0000.0,0012.32,0004.55,0003.40
2023-07-27 03:15:00,SystemResetWarning,0835.4,4.99,000.00,029.2,026.6,000.0,037.4,030.6,31.6,0000.0,0013.35,0004.52,0003.40
2023-07-27 03:16:00,SystemResetWarning,0835.5,5.00,000.00,029.1,025.4,000.0,037.3,030.4,31.5,0000.0,0012.75,0004.52,0003.41
2023-07-27 03:17:00,SystemResetWarning,0835.5,5.01,000.00,029.0,025.3,000.0,037.3,030.2,31.4,0000.0,0012.93,0004.50,0003.42
2023-07-27 03:18:00,SystemResetWarning,0835.5,5.00,000.00,028.9,025.7,000.0,037.3,030.2,31.4,0000.0,0012.96,0004.46,0003.42
2023-07-27 03:19:00,SystemResetWarning,0835.5,4.99,000.00,028.9,026.1,000.0,037.3,030.3,31.2,0000.0,0013.19,0004.48,0003.42
2023-07-27 03:20:00,SystemResetWarning,0835.6,5.00,000.00,028.9,026.5,000.0,037.3,030.4,31.1,0000.0,0013.86,0004.46,0003.41
2023-07-27 03:21:00,SystemResetWarning,0835.6,5.00,000.00,029.0,026.8,000.0,037.4,030.5,31.0,0000.0,0013.42,0004.43,0003.40
2023-07-27 03:22:00,SystemResetWarning,0835.6,5.00,000.00,029.0,027.1,000.0,037.4,030.6,31.0,0000.0,0012.81,0004.44,0003.40
2023-07-27 03:23:00,SystemResetWarning,0835.6,4.99,000.00,029.0,027.4,000.0,037.4,030.7,31.1,0000.0,0012.74,0004.47,0003.40
2023-07-27 03:24:00,SystemResetWarning,0835.7,4.99,000.00,029.1,027.6,000.0,037.4,030.7,31.1,0000.0,0013.14,0004.43,0003.40
2023-07-27 03:25:00,SystemResetWarning,0835.8,4.99,000.00,029.1,027.8,000.0,037.4,030.8,31.1,0000.0,0013.90,0004.45,0003.40
2023-07-27 03:26:00,SystemResetWarning,0835.8,5.00,000.00,029.1,026.9,000.0,037.4,030.6,31.3,0000.0,0014.62,0004.46,0003.39
2023-07-27 03:27:00,SystemResetWarning,0835.8,5.00,000.00,029.0,025.6,000.0,037.3,030.4,31.3,0000.0,0014.56,0004.46,0003.39
2023-07-27 03:28:00,SystemResetWarning,0835.8,5.00,000.00,029.0,025.3,000.0,037.2,030.2,31.3,0000.0,0014.58,0004.51,0003.40
2023-07-27 03:29:00,SystemResetWarning,0835.8,5.00,000.00,028.9,025.6,000.0,037.3,030.2,31.7,0000.0,0014.35,0004.51,0003.40
2023-07-27 03:30:00,SystemResetWarning,0835.9,5.01,000.00,028.9,026.0,000.0,037.3,030.3,32.1,0000.0,0014.12,0004.57,0003.40
2023-07-27 03:31:00,SystemResetWarning,0835.9,5.00,000.00,028.9,026.4,000.0,037.3,030.4,32.3,0000.0,0014.07,0004.62,0003.40
2023-07-27 03:32:00,SystemResetWarning,0835.9,4.99,000.00,028.9,026.8,000.0,037.3,030.5,32.6,0000.0,0014.57,0004.66,0003.40
2023-07-27 03:33:00,SystemResetWarning,0835.9,5.01,000.00,028.9,027.1,000.0,037.4,030.6,32.7,0000.0,0014.94,0004.68,0003.40
2023-07-27 03:34:00,SystemResetWarning,0836.0,5.01,000.00,029.0,027.4,000.0,037.4,030.6,32.8,0000.0,0015.08,0004.69,0003.39
2023-07-27 03:35:00,SystemResetWarning,0836.0,4.99,000.00,029.0,027.6,000.0,037.4,030.7,32.8,0000.0,0015.49,0004.67,0003.39
2023-07-27 03:36:00,SystemResetWarning,0836.1,4.98,000.00,029.1,027.8,000.0,037.4,030.8,32.9,0000.0,0015.14,0004.64,0003.37
2023-07-27 03:37:00,SystemResetWarning,0836.1,4.99,000.00,029.1,027.2,000.0,037.4,030.8,32.5,0000.0,0013.40,0004.61,0003.37
2023-07-27 03:38:00,SystemResetWarning,0836.0,5.00,000.00,029.1,025.8,000.0,037.3,030.5,32.8,0000.0,0012.99,0004.58,0003.35
2023-07-27 03:39:00,SystemResetWarning,0836.0,5.01,000.00,029.0,025.4,000.0,037.2,030.4,33.6,0000.0,0013.13,0004.55,0003.33
2023-07-27 03:40:00,SystemResetWarning,0835.9,5.01,000.00,028.9,025.6,000.0,037.2,030.2,33.7,0000.0,0013.25,0004.57,0003.33
2023-07-27 03:41:00,SystemResetWarning,0835.9,5.01,000.00,028.9,026.0,000.0,037.3,030.3,33.3,0000.0,0013.13,0004.52,0003.32
2023-07-27 03:42:00,SystemResetWarning,0835.9,5.00,000.00,028.9,026.4,000.0,037.3,030.4,32.9,0000.0,0012.39,0004.51,0003.31
2023-07-27 03:43:00,SystemResetWarning,0835.9,5.00,000.00,028.9,026.7,000.0,037.3,030.5,32.8,0000.0,0011.78,0004.48,0003.30
2023-07-27 03:44:00,SystemResetWarning,0836.0,5.00,000.00,029.0,027.1,000.0,037.4,030.6,32.5,0000.0,0011.54,0004.42,0003.30
2023-07-27 03:45:00,SystemResetWarning,0836.1,5.00,000.00,029.0,027.3,000.0,037.4,030.7,32.1,0000.0,0011.91,0004.37,0003.30
2023-07-27 03:46:00,SystemResetWarning,0836.1,5.00,000.00,029.0,027.6,000.0,037.4,030.7,32.1,0000.0,0010.99,0004.35,0003.28
2023-07-27 03:47:00,SystemResetWarning,0836.1,4.98,000.00,029.1,027.8,000.0,037.4,030.8,31.7,0000.0,0010.96,0004.33,0003.29
2023-07-27 03:48:00,SystemResetWarning,0836.2,4.99,000.00,029.1,027.9,000.0,037.4,030.8,31.6,0000.0,0011.25,0004.38,0003.28
2023-07-27 03:49:00,SystemResetWarning,0836.2,5.00,000.00,029.1,026.9,000.0,037.4,030.7,31.2,0000.0,0011.70,0004.42,0003.29
2023-07-27 03:50:00,SystemResetWarning,0836.2,5.00,000.00,029.1,025.7,000.0,037.3,030.5,31.2,0000.0,0011.70,0004.41,0003.30
2023-07-27 03:51:00,SystemResetWarning,0836.3,5.01,000.00,029.0,025.5,000.0,037.2,030.3,31.4,0000.0,0012.44,0004.40,0003.30
2023-07-27 03:52:00,SystemResetWarning,0836.4,5.01,000.00,028.9,025.8,000.0,037.3,030.3,31.4,0000.0,0012.44,0004.40,0003.30
2023-07-27 03:53:00,SystemResetWarning,0836.5,4.99,000.00,028.9,026.1,000.0,037.3,030.4,31.5,0000.0,0012.88,0004.42,0003.31
2023-07-27 03:54:00,SystemResetWarning,0836.6,5.00,000.00,028.9,026.5,000.0,037.3,030.4,31.5,0000.0,0013.30,0004.44,0003.32
2023-07-27 03:55:00,SystemResetWarning,0836.7,4.99,000.00,029.0,026.9,000.0,037.4,030.5,31.3,0000.0,0013.87,0004.52,0003.32
2023-07-27 03:56:00,SystemResetWarning,0836.8,5.01,000.00,029.0,027.2,000.0,037.4,030.6,31.0,0000.0,0013.08,0004.54,0003.32
2023-07-27 03:57:00,SystemResetWarning,0836.9,5.02,000.00,029.0,027.5,000.0,037.4,030.7,30.9,0000.0,0013.16,0004.58,0003.33
2023-07-27 03:58:00,SystemResetWarning,0837.0,5.00,000.00,029.1,027.7,000.0,037.4,030.8,30.9,0000.0,0013.43,0004.61,0003.34
2023-07-27 03:59:00,SystemResetWarning,0837.1,4.99,000.00,029.1,027.8,000.0,037.4,030.8,30.8,0000.0,0014.09,0004.65,0003.36
